Weather History for Kansas City, MO

Change the Weather History Date:

Monday, May 13, 2013

  Actual Average Record
Temperature  
Mean Temperature 63 °F -  
Max Temperature 78 °F 73 °F 88 °F (2007)
Min Temperature 48 °F 54 °F 42 °F (1997)
Degree Days  
Heating Degree Days 2    
Growing Degree Days 13 (Base 50)    
Moisture  
Dew Point 47 °F    
Average Humidity 54    
Maximum Humidity 77    
Minimum Humidity 37    
Precipitation  
Precipitation 0.00 in - - ()
Sea Level Pressure  
Sea Level Pressure 30.06 in    
Wind  
Wind Speed 4 mph (South)    
Max Wind Speed 14 mph    
Max Gust Speed 18 mph    
Visibility 10 miles    
Events      
Averages and records for this station are not official NWS values.
T = Trace of Precipitation, MM = Missing Value Source: NWS Daily Summary

Daily Weather History Graph

Daily Weather History Graph

Search for Another Location

Airport:

Trip Planner

Search our weather history database for the weather conditions in past years. The results will help you decide how hot, cold, wet, or windy it might be!

Date:

Astronomy

May. 13, 2013 Rise Set
Actual Time 6:06 AM CDT 8:23 PM CDT
Civil Twilight 5:36 AM CDT 8:53 PM CDT
Nautical Twilight 5:00 AM CDT 9:30 PM CDT
Astronomical Twilight 4:19 AM CDT 10:10 PM CDT
Moon 8:53 AM CDT (5/13) 11:32 PM CDT (5/13)
Length of Visible Light 15h 16m
Length of Day
14h 16m
Waxing Crescent, 12% of the Moon is Illuminated
May 13
Waxing Crescent
May 17
First Quarter
May 24
Full
May 31
Last Quarter
Jun 8
New

Hourly Weather History & Observations

Time (CDT) Temp. Dew Point Humidity Pressure Visibility Wind Dir Wind Speed Gust Speed Precip Events Conditions
12:54 AM 55.0 °F 41.0 °F 59% 30.15 in 10.0 mi Calm Calm - N/A   Clear
1:54 AM 52.0 °F 43.0 °F 71% 30.14 in 10.0 mi Calm Calm - N/A   Clear
2:54 AM 52.0 °F 41.0 °F 66% 30.14 in 10.0 mi Calm Calm - N/A   Clear
3:54 AM 51.1 °F 41.0 °F 68% 30.13 in 10.0 mi Calm Calm - N/A   Clear
4:54 AM 48.9 °F 41.0 °F 74% 30.13 in 10.0 mi Calm Calm - N/A   Clear
5:54 AM 48.9 °F 42.1 °F 77% 30.13 in 10.0 mi NE 5.8 mph - N/A   Clear
6:54 AM 52.0 °F 43.0 °F 71% 30.14 in 10.0 mi Calm Calm - N/A   Clear
7:54 AM 57.9 °F 42.1 °F 56% 30.13 in 10.0 mi South 8.1 mph - N/A   Clear
8:54 AM 62.1 °F 41.0 °F 46% 30.13 in 10.0 mi South 6.9 mph - N/A   Clear
9:54 AM 66.0 °F 42.1 °F 42% 30.12 in 10.0 mi SSE 8.1 mph - N/A   Clear
10:54 AM 69.1 °F 44.1 °F 40% 30.10 in 10.0 mi South 11.5 mph 18.4 mph N/A   Clear
11:54 AM 72.0 °F 46.9 °F 41% 30.08 in 10.0 mi ESE 9.2 mph - N/A   Clear
12:54 PM 73.9 °F 46.0 °F 37% 30.06 in 10.0 mi SSE 9.2 mph - N/A   Clear
1:54 PM 75.0 °F 48.0 °F 38% 30.06 in 10.0 mi SSE 9.2 mph 17.3 mph N/A   Clear
3:54 PM 78.1 °F 51.1 °F 39% 30.01 in 10.0 mi South 6.9 mph - N/A   Clear
4:54 PM 78.1 °F 53.1 °F 42% 29.99 in 10.0 mi SSW 10.4 mph - N/A   Clear
5:54 PM 77.0 °F 52.0 °F 42% 29.98 in 10.0 mi South 11.5 mph - N/A   Clear
6:54 PM 75.2 °F 51.8 °F 44% 29.97 in 10.0 mi South 13.8 mph - N/A   Clear
7:54 PM 73.9 °F 52.0 °F 46% 29.94 in 10.0 mi SSW 8.1 mph - N/A   Clear
8:54 PM 71.1 °F 53.1 °F 53% 29.94 in 10.0 mi South 6.9 mph - N/A   Clear
9:54 PM 70.0 °F 54.0 °F 57% 29.95 in 10.0 mi SSW 8.1 mph - N/A   Clear
10:54 PM 69.1 °F 55.0 °F 61% 29.93 in 10.0 mi SSW 11.5 mph - N/A   Clear
11:54 PM 69.1 °F 55.0 °F 61% 29.92 in 10.0 mi SSW 10.4 mph - N/A   Clear